Temperature
21 20 20 20 20 20 19 19 19 19 19 18 18 18 18 18 18 18 18 18 18 18 18 18 18 18 18 18 18 18 18 18 18 18 18 18 18 18 18 18 18 18 18
20 20 20 20 20 20 19 19 19 19 19 19 18 18 18 18 18 18 18 18 18 18 18 18 18 18 18 18 18 18 17 17 17 17 17 17 17 18 18 18 18 18 18
20 20 20 20 20 20 20 20 19 19 19 19 18 18 18 18 18 18 18 18 18 18 18 18 18 18 18 18 17 17 17 17 17 17 17 17 17 17 17 17 18 17 17
20 20 20 20 20 20 20 20 20 19 19 19 18 18 18 18 18 18 18 18 18 18 18 18 18 18 18 18 18 17 17 17 17 17 17 17 17 17 17 17 17 17 17
20 20 20 20 20 20 20 20 20 19 19 19 18 18 18 18 18 18 18 18 18 18 18 18 18 18 18 18 18 17 17 17 17 17 17 17 17 17 17 17 17 17 17
20 20 20 20 20 20 20 20 19 19 19 19 18 18 18 18 18 18 18 18 18 18 18 18 18 18 18 18 18 17 17 17 17 17 17 17 17 17 17 17 17 17 17
20 20 20 20 20 20 20 20 19 19 19 19 18 18 18 18 18 18 18 18 18 18 18 18 18 18 18 18 18 18 17 17 17 17 17 17 17 17 17 17 16 16 16
21 20 21 20 20 20 20 19 19 19 19 19 18 18 18 18 18 18 18 18 18 18 18 18 18 18 18 18 18 18 17 17 17 17 17 17 17 17 17 16 16 16 16
21 21 21 21 20 20 20 20 19 19 19 19 18 18 18 18 18 18 18 18 18 18 18 18 18 18 18 18 18 17 17 17 17 17 17 17 17 17 17 16 16 16 16
21 21 21 21 21 20 20 20 19 19 19 19 18 18 18 18 18 18 18 18 18 18 18 18 18 17 18 17 17 17 17 17 17 17 17 17 17 16 16 16 16 16 16
21 20 20 21 21 20 20 20 19 19 19 19 18 18 18 18 18 18 18 18 18 18 18 17 17 17 17 17 17 17 17 17 17 17 17 17 17 17 16 16 16 16 16
21 21 20 20 20 20 20 20 19 19 19 19 18 18 18 18 18 18 17 17 17 17 17 17 17 17 17 17 17 17 17 17 17 17 17 17 17 17 16 16 16 16 16
20 20 20 20 20 20 19 19 19 19 19 18 18 18 18 17 17 17 17 17 17 17 17 17 17 17 17 17 17 17 16 16 16 16 16 16 16 16 16 16 16 16 16
20 20 20 20 20 19 19 19 19 19 18 18 18 18 18 18 17 17 17 17 17 17 17 17 17 17 17 16 16 16 16 16 16 16 16 16 16 16 16 16 16 16 15
19 19 19 20 19 19 19 19 19 18 18 18 18 18 18 18 17 17 17 17 17 17 17 16 16 16 16 16 16 16 16 16 16 16 16 16 16 16 16 16 15 15 15
19 19 19 19 19 19 19 19 18 18 18 18 18 18 18 17 17 17 17 17 17 16 16 16 16 16 16 16 16 16 16 16 16 16 16 16 16 16 15 15 15 15 15
19 19 19 19 19 19 19 18 18 18 18 17 17 17 17 17 17 17 16 16 16 16 16 16 16 16 16 15 15 15 15 15 15 15 15 15 15 15 15 15 15 15 15
19 19 19 19 19 19 18 18 18 17 17 17 17 17 17 17 16 16 16 16 16 16 16 16 16 15 15 15 15 15 15 15 15 15 15 15 15 15 15 15 15 15 14
18 18 18 18 18 18 18 17 17 17 17 17 17 17 16 16 16 16 16 16 15 15 15 15 15 15 15 15 15 15 15 15 14 14 14 14 14 14 14 14 14 14 14
18 18 18 17 17 17 17 17 17 16 16 16 16 16 16 16 16 16 16 15 15 15 15 15 15 15 15 15 14 14 14 14 14 14 14 14 14 14 14 14 14 14 14
17 17 17 17 17 17 17 16 16 16 16 16 16 16 16 15 15 15 15 15 15 15 15 14 14 14 14 14 14 14 14 14 14 14 14 14 14 13 13 13 13 13 13
17 17 16 16 16 16 16 16 16 16 16 16 16 15 15 15 15 15 15 15 14 14 14 14 14 14 14 14 14 14 14 14 14 14 14 13 13 13 13 13 13 13 13
16 16 16 16 16 16 16 16 15 15 15 15 15 15 15 15 14 14 14 14 14 14 14 14 14 14 14 14 13 13 13 13 13 13 13 13 13 13 13 13 13 13 13
16 16 16 16 15 15 15 15 15 15 15 15 15 14 14 14 14 14 14 14 13 13 13 13 13 13 13 13 13 13 13 13 13 13 13 13 13 12 12 12 12 12 12
15 15 15 15 15 15 15 14 14 14 14 14 14 14 14 14 14 14 13 13 13 13 13 13 13 13 13 13 13 13 13 13 12 12 12 12 12 12 12 12 12 12 11
15 15 15 15 14 14 14 14 14 14 14 14 14 14 14 14 13 13 13 13 13 13 13 13 13 13 13 13 12 12 12 12 12 12 12 12 12 12 11 11 11 11 11
Wind_Speed
5 5 6 6 6 5 5 5 5 4 4 2 2 1 1 1 0 1 3 3 3 4 3 2 1 1 1 1 1 1 1 0 1 1 2 2 1 0 1 2 2 2 3
4 5 6 6 6 6 6 5 5 5 4 3 3 2 2 1 1 1 2 3 3 3 3 3 2 2 1 0 1 2 1 0 1 1 1 2 2 1 1 1 1 2 2
8 8 7 7 7 6 7 7 6 5 5 4 3 2 1 1 0 1 1 2 3 4 4 3 3 2 2 2 2 2 2 1 0 1 2 1 2 2 2 1 1 1 1
6 7 7 7 8 8 6 6 6 5 5 4 4 4 3 3 3 2 2 3 3 3 4 4 4 3 3 3 3 2 2 2 2 1 1 2 2 1 2 2 1 1 1
7 7 8 9 8 7 7 6 5 5 4 5 5 4 3 3 2 1 2 2 2 2 3 4 4 3 3 3 3 2 3 2 3 2 1 1 1 2 2 2 2 2 1
6 6 6 6 5 5 6 6 5 5 5 5 5 5 5 3 2 2 2 2 2 2 3 3 3 4 3 4 4 4 4 4 4 3 3 3 2 3 3 3 3 3 2
6 6 6 6 6 6 6 6 6 6 6 6 6 6 5 4 4 4 4 3 2 2 3 3 3 3 4 4 4 4 4 5 4 5 4 4 4 3 3 3 2 2 2
5 7 8 8 7 6 6 6 6 6 6 6 6 5 5 4 4 4 4 4 4 4 3 4 4 4 4 4 4 4 5 4 4 5 5 4 4 4 4 3 3 2 2
6 6 7 7 7 7 6 7 6 5 6 6 5 5 5 5 5 4 4 4 3 3 3 3 4 4 3 3 3 3 4 4 4 5 5 4 4 4 4 4 4 3 3
4 4 5 6 7 7 6 5 5 5 4 4 4 4 4 5 4 3 4 4 4 3 3 3 4 4 4 3 3 4 4 4 4 3 4 4 3 3 3 4 4 4 4
5 4 4 5 5 4 4 5 5 4 4 3 3 4 4 4 3 4 4 4 4 3 4 4 4 4 4 3 3 4 3 4 4 3 4 5 4 3 3 3 3 3 3
4 4 4 4 4 4 4 5 5 5 5 4 4 4 3 3 3 4 4 4 4 4 4 4 4 5 4 3 4 4 4 4 5 4 4 5 3 3 3 3 3 3 4
3 3 3 3 4 4 4 5 5 5 5 4 4 4 3 3 4 4 4 3 3 4 4 4 4 5 5 5 5 5 5 5 5 5 5 5 4 4 3 3 3 3 3
3 3 3 3 3 4 4 4 4 4 4 4 4 4 4 4 5 4 3 3 3 3 3 3 4 4 5 5 5 5 5 5 5 5 4 4 5 5 4 4 4 3 3
2 3 3 3 3 3 4 4 4 3 4 4 4 5 4 4 3 3 3 2 2 3 3 3 3 3 4 4 4 4 5 5 4 4 4 4 4 5 4 4 4 4 3
4 3 3 4 4 4 4 4 4 4 4 4 5 4 3 3 3 3 3 2 2 2 2 3 3 3 4 4 4 4 4 4 4 4 4 4 4 4 5 5 5 5 5
3 3 4 4 4 4 4 5 4 4 4 4 4 4 3 3 3 3 2 2 3 2 2 3 3 3 4 4 3 3 3 3 4 4 4 3 3 3 3 3 4 4 5
3 3 3 3 2 1 1 2 2 3 4 3 4 3 3 3 3 3 2 3 2 2 3 3 3 3 4 3 3 3 3 3 3 4 4 4 3 2 2 3 3 3 4
2 2 2 1 0 0 1 2 2 2 3 3 3 3 3 3 2 2 3 2 2 2 2 2 2 2 4 3 2 1 2 2 3 3 3 3 3 4 3 3 3 3 3
2 2 3 2 1 1 1 2 3 3 3 3 3 3 3 3 3 3 3 2 1 2 2 2 2 2 3 3 2 1 1 2 2 2 2 2 3 3 2 3 4 3 3
2 3 2 1 1 1 1 2 2 3 3 2 2 2 2 3 3 3 1 1 1 0 1 1 2 2 2 2 2 1 2 2 2 2 3 3 3 3 2 2 3 4 3
2 2 2 2 2 2 2 1 2 2 1 1 1 2 2 2 1 1 1 1 1 0 1 1 2 2 2 2 2 2 2 2 2 3 3 3 2 2 2 2 2 2 2
2 2 2 2 2 1 1 1 2 1 0 1 1 1 1 1 1 2 2 1 1 1 1 2 2 3 2 2 2 2 2 2 2 2 3 2 2 1 1 0 1 2 1
1 2 2 2 2 2 1 1 2 1 0 1 1 1 1 1 0 1 1 1 1 1 2 2 2 2 2 2 1 1 1 1 1 1 1 1 1 1 1 1 1 1 0
1 1 0 0 2 2 2 2 1 0 0 0 0 0 1 1 0 0 1 2 3 3 3 3 3 3 3 4 2 1 1 1 1 0 1 2 2 1 2 2 1 1 1
0 1 1 1 2 2 2 3 2 1 1 1 1 0 0 0 0 0 1 2 1 1 2 4 4 3 3 2 1 1 1 0 1 2 1 1 1 1 0 0 1 1 1
Wind_Direction
190 167 168 163 157 161 162 164 164 165 152 145 156 162 204 219 231 231 231 217 203 197 191 200 181 169 168 188 161 138 125 73 125 69 1 349 335 283 256 240 235 246 243
175 173 172 169 170 173 174 169 173 175 175 176 172 167 167 193 218 261 259 239 220 208 208 197 201 180 157 146 153 138 141 184 119 127 63 340 338 344 313 232 229 253 245
193 189 184 182 178 183 184 185 185 184 183 172 144 135 102 52 221 273 273 255 235 224 217 208 199 191 183 198 210 182 177 203 263 151 164 181 256 308 328 340 301 282 249
202 197 191 187 189 193 186 182 183 182 183 171 165 171 185 206 220 221 242 260 241 232 223 212 203 204 198 202 219 202 197 186 221 228 215 213 194 209 304 321 325 313 276
203 196 195 197 195 191 187 188 181 184 181 181 183 182 201 215 217 215 241 261 264 248 237 222 213 215 213 211 212 208 205 203 211 210 202 211 223 208 217 280 302 314 296
206 199 191 185 193 190 188 185 183 196 188 189 193 192 199 202 205 223 233 250 258 260 251 231 221 224 222 221 220 215 216 220 218 217 213 210 212 209 204 234 266 287 293
195 188 182 184 190 192 194 189 185 205 204 203 207 206 205 202 213 224 229 235 243 248 253 245 235 235 234 229 222 214 227 225 225 225 228 225 226 210 201 208 244 271 291
195 194 194 189 193 196 195 190 193 206 208 211 218 215 207 210 225 229 229 232 236 241 244 241 242 241 238 239 225 224 232 226 226 234 228 227 230 216 204 205 204 250 287
203 201 200 197 194 194 199 198 193 202 207 211 215 215 210 211 224 232 231 242 248 248 242 238 242 246 239 234 224 229 234 228 229 234 231 232 231 219 219 212 207 206 253
209 206 202 200 197 195 195 192 192 196 200 201 211 222 220 218 223 224 230 242 251 254 254 247 241 243 243 233 222 235 239 236 242 234 231 236 233 225 220 212 212 212 220
202 203 201 201 198 186 185 189 195 192 193 199 211 227 232 223 222 229 238 247 255 253 252 249 242 244 245 240 229 238 233 235 245 241 235 241 228 223 226 215 208 211 207
201 194 189 184 187 194 205 205 204 203 207 206 211 224 233 228 229 243 251 249 254 259 256 249 241 243 244 236 232 239 242 236 241 241 238 243 233 224 222 216 218 216 211
206 196 187 195 204 210 216 219 216 211 211 203 207 215 222 227 236 243 250 251 260 269 266 251 245 246 244 238 235 233 238 238 238 236 235 239 227 231 227 218 220 222 219
203 203 206 210 214 221 223 220 224 213 202 198 201 210 219 225 235 240 245 247 252 262 259 253 252 251 247 244 240 233 236 240 241 237 231 229 224 227 223 222 224 219 214
236 224 220 218 212 220 225 219 220 212 199 196 208 220 222 222 227 233 239 240 242 254 255 257 262 260 251 251 246 239 238 239 242 239 232 232 227 225 219 220 216 210 214
254 240 227 220 222 224 222 213 212 203 192 204 218 226 220 224 233 240 241 241 246 256 258 255 257 265 266 274 255 240 244 235 231 239 244 244 236 234 229 223 214 205 210
265 251 239 231 226 226 218 214 208 198 193 204 220 222 215 220 231 234 230 239 245 249 260 260 256 265 273 277 266 251 245 240 235 233 241 254 261 238 232 231 226 223 220
275 264 252 249 249 232 230 209 198 198 203 210 220 218 216 224 230 228 225 239 247 244 250 260 258 262 281 282 268 260 249 248 246 240 236 242 259 250 232 230 236 242 240
295 294 287 266 266 185 212 177 179 192 205 220 223 213 207 211 219 232 239 236 236 247 249 260 254 259 281 284 274 261 257 260 269 264 254 244 253 261 236 214 225 247 268
5 8 27 34 29 315 165 166 191 188 212 222 224 208 193 194 203 215 227 223 227 245 254 277 267 254 270 284 272 224 233 259 272 280 276 265 261 270 236 210 208 223 251
24 30 44 44 6 342 138 174 194 213 234 224 221 218 208 206 203 197 199 180 180 298 322 304 293 278 271 281 277 220 207 236 254 266 275 274 268 268 256 215 209 222 225
25 29 30 5 1 29 73 153 239 260 273 181 200 226 229 225 197 173 169 138 146 128 324 313 312 307 296 293 305 298 254 245 238 258 270 271 264 258 253 225 219 188 167
20 21 33 19 4 6 108 206 285 326 13 176 221 243 241 234 188 177 168 142 155 189 267 265 279 298 305 314 317 314 296 278 248 265 284 291 283 255 225 221 116 130 140
4 25 40 29 354 343 335 278 293 315 102 197 224 219 212 241 170 191 185 180 206 222 249 258 264 276 287 299 311 314 304 307 291 288 331 20 45 57 63 55 49 37 101
350 17 67 17 328 342 345 339 333 61 72 318 203 199 206 192 170 293 276 240 234 219 224 243 244 249 267 268 245 220 252 262 249 128 68 55 59 47 40 38 30 32 47
301 335 331 330 325 340 345 342 350 66 107 48 7 352 39 91 169 218 349 353 286 251 230 234 232 243 243 259 245 237 222 212 147 119 124 112 115 116 90 61 5 4 7
Height
1517 1520 1521 1523 1525 1526 1528 1529 1531 1532 1534 1535 1536 1537 1538 1539 1540 1541 1542 1543 1543 1544 1544 1544 1545 1545 1546 1546 1546 1546 1547 1547 1547 1547 1546 1546 1546 1546 1546 1546 1546 1546 1546
1516 1518 1520 1521 1523 1525 1526 1528 1530 1531 1533 1534 1536 1537 1538 1538 1539 1540 1541 1542 1542 1543 1543 1544 1544 1545 1545 1545 1545 1545 1545 1545 1546 1546 1546 1545 1545 1544 1544 1544 1544 1544 1544
1514 1515 1517 1519 1521 1523 1525 1527 1529 1530 1532 1534 1535 1536 1537 1537 1538 1539 1539 1540 1541 1542 1542 1543 1543 1543 1543 1544 1544 1544 1544 1544 1545 1545 1545 1545 1543 1543 1543 1542 1542 1542 1543
1512 1513 1515 1517 1519 1522 1524 1526 1527 1529 1531 1533 1533 1534 1535 1535 1536 1537 1538 1539 1540 1540 1541 1541 1542 1542 1542 1542 1542 1542 1543 1543 1543 1543 1543 1544 1543 1542 1541 1541 1541 1541 1541
1510 1511 1513 1516 1518 1521 1522 1524 1525 1527 1529 1531 1532 1532 1533 1534 1535 1536 1536 1537 1538 1538 1539 1539 1539 1540 1540 1540 1540 1540 1541 1541 1541 1541 1541 1541 1541 1540 1540 1539 1539 1539 1539
1508 1509 1512 1514 1516 1519 1520 1522 1523 1525 1527 1528 1530 1530 1531 1532 1533 1534 1534 1535 1536 1536 1536 1537 1537 1537 1538 1538 1538 1538 1538 1539 1539 1539 1539 1538 1538 1538 1538 1537 1536 1536 1536
1506 1507 1509 1511 1513 1515 1517 1519 1520 1523 1524 1526 1527 1528 1529 1530 1531 1531 1532 1532 1533 1533 1534 1535 1535 1535 1535 1536 1536 1536 1536 1536 1536 1536 1536 1536 1536 1536 1536 1535 1534 1534 1534
1503 1505 1506 1508 1510 1513 1515 1516 1518 1520 1521 1523 1524 1525 1527 1528 1528 1529 1529 1530 1530 1531 1531 1532 1532 1532 1533 1533 1533 1533 1533 1533 1533 1533 1533 1533 1533 1533 1533 1532 1532 1531 1531
1501 1502 1504 1506 1508 1510 1512 1514 1515 1517 1519 1520 1522 1523 1524 1525 1525 1526 1526 1527 1527 1528 1528 1528 1529 1529 1530 1530 1530 1530 1530 1530 1530 1530 1530 1530 1530 1530 1530 1530 1530 1530 1529
1500 1501 1502 1504 1506 1508 1510 1512 1513 1514 1516 1517 1519 1520 1521 1522 1522 1523 1523 1523 1524 1524 1525 1525 1525 1526 1526 1526 1526 1526 1527 1527 1526 1526 1526 1526 1526 1526 1526 1527 1527 1527 1527
1498 1499 1500 1503 1504 1506 1508 1509 1511 1512 1513 1514 1516 1517 1518 1518 1519 1519 1519 1520 1521 1521 1521 1521 1522 1522 1522 1523 1523 1523 1523 1523 1523 1523 1523 1523 1523 1523 1523 1523 1523 1523 1523
1497 1498 1499 1501 1503 1504 1505 1507 1508 1509 1510 1511 1512 1513 1514 1515 1515 1516 1516 1516 1517 1517 1517 1517 1517 1517 1518 1518 1519 1519 1519 1519 1519 1520 1520 1520 1520 1520 1520 1519 1519 1519 1520
1496 1497 1498 1499 1500 1502 1503 1504 1505 1506 1507 1508 1509 1510 1511 1511 1511 1512 1512 1512 1513 1513 1513 1513 1513 1513 1514 1514 1514 1515 1515 1516 1516 1516 1516 1516 1517 1516 1516 1516 1516 1516 1516
1494 1495 1496 1497 1498 1500 1501 1502 1503 1503 1504 1505 1506 1506 1507 1507 1507 1508 1508 1508 1508 1508 1509 1509 1508 1509 1509 1510 1510 1511 1511 1512 1512 1512 1512 1513 1513 1513 1513 1513 1513 1513 1513
1493 1493 1493 1494 1495 1497 1498 1499 1499 1500 1501 1502 1502 1503 1503 1503 1504 1504 1504 1504 1504 1504 1504 1504 1504 1504 1505 1505 1506 1506 1507 1507 1508 1508 1508 1508 1509 1509 1509 1509 1509 1509 1509
1491 1491 1491 1492 1492 1493 1494 1495 1496 1497 1498 1498 1499 1500 1500 1500 1500 1500 1500 1500 1500 1500 1500 1500 1500 1500 1501 1501 1502 1502 1502 1503 1503 1504 1504 1504 1505 1505 1505 1505 1505 1505 1505
1489 1489 1489 1489 1490 1491 1492 1493 1493 1494 1494 1495 1495 1497 1497 1497 1496 1497 1496 1496 1496 1496 1497 1497 1497 1497 1497 1498 1498 1498 1499 1499 1499 1500 1500 1500 1501 1501 1501 1501 1501 1501 1501
1488 1488 1488 1488 1488 1489 1490 1490 1491 1491 1492 1491 1492 1492 1493 1493 1493 1493 1493 1493 1493 1493 1493 1494 1494 1494 1494 1494 1494 1495 1495 1495 1495 1496 1496 1496 1497 1497 1497 1497 1497 1497 1497
1487 1487 1487 1487 1487 1487 1488 1488 1488 1489 1489 1489 1488 1489 1489 1490 1490 1490 1490 1490 1490 1490 1490 1491 1491 1491 1491 1491 1491 1491 1491 1491 1491 1492 1492 1492 1492 1493 1493 1493 1493 1493 1493
1486 1486 1486 1486 1486 1486 1486 1486 1486 1486 1486 1485 1485 1486 1486 1487 1486 1486 1487 1487 1487 1487 1488 1488 1488 1488 1488 1488 1488 1488 1488 1488 1488 1488 1488 1488 1489 1489 1489 1489 1489 1489 1489
1485 1485 1485 1484 1484 1484 1484 1484 1484 1483 1483 1484 1484 1484 1484 1484 1484 1484 1484 1484 1484 1485 1485 1486 1486 1486 1486 1486 1486 1485 1485 1485 1485 1485 1485 1485 1485 1485 1486 1486 1486 1486 1486
1484 1484 1484 1483 1483 1483 1482 1482 1481 1482 1482 1482 1482 1482 1482 1482 1482 1482 1482 1482 1483 1483 1483 1483 1483 1483 1483 1483 1483 1483 1483 1482 1482 1482 1482 1482 1482 1483 1483 1483 1483 1483 1483
1484 1484 1483 1482 1482 1482 1481 1480 1480 1480 1480 1480 1480 1480 1480 1480 1480 1480 1480 1480 1480 1481 1481 1481 1480 1480 1480 1480 1481 1481 1480 1480 1480 1480 1480 1480 1480 1480 1480 1481 1481 1481 1480
1483 1483 1482 1481 1481 1481 1481 1480 1479 1479 1479 1479 1479 1478 1478 1479 1479 1478 1478 1478 1478 1478 1478 1478 1478 1477 1478 1478 1478 1478 1478 1478 1478 1478 1478 1478 1478 1478 1478 1478 1478 1478 1478
1483 1483 1482 1482 1481 1480 1480 1479 1478 1478 1477 1477 1477 1477 1477 1477 1477 1476 1477 1477 1476 1476 1477 1476 1476 1475 1475 1475 1475 1476 1476 1476 1476 1476 1476 1476 1476 1475 1475 1475 1475 1476 1475
1482 1482 1482 1481 1481 1480 1479 1479 1478 1477 1476 1476 1475 1476 1476 1475 1475 1475 1475 1475 1475 1475 1475 1475 1474 1473 1473 1473 1474 1474 1474 1474 1474 1474 1474 1474 1473 1473 1473 1473 1473 1473 1473